Regional Weather Roundup
Issued by NWS

Home | Current Version | Previous Version | Text Only | Print | Product List | Glossary Off
Versions: 1 2 3 4 5 6 7 8 9 10 11 12 13 14 15 16 17 18 19 20 21 22 23 24 25 26 27 28 29 30 31 32 33 34 35 36 37 38 39 40 41 42 43 44 45 46 47 48 49 50

371
ASUS44 KLIX 270211
RWRLA
LOUISIANA WEATHER ROUNDUP
NATIONAL WEATHER SERVICE NEW ORLEANS LA
900 PM CDT THU MAR 26 2015

NOTE: "FAIR" INDICATES FEW OR NO CLOUDS BELOW 12,000 FEET WITH NO
      SIGNIFICANT WEATHER AND/OR OBSTRUCTIONS TO VISIBILITY.
      SKY/WX - SKY CONDITION AND SIGNIFICANT WEATHER.
      TMP - AIR TEMPERATURE.    DP   - DEWPOINT TEMPERATURE.
      RH  - RELATIVE HUMIDITY.  PRES - PRESSURE.
      HX  - HEAT INDEX.         WCI  - WIND CHILL INDEX.

*  THESE STATIONS ARE NOT NWS OR FAA STATIONS AND ARE NOT UNDER
   NWS QUALITY CONTROL.

LAZ040-048-061>063-065-066-069-270300-
SOUTHEAST LOUISIANA

CITY           SKY/WX    TMP DP  RH WIND       PRES   REMARKS
N.O. AUDUBON     N/A     66  66 100 MISG        N/A
N.O. INTL ARPT CLOUDY    65  60  84 CALM      29.88S
N.O. LAKEFRONT CLOUDY    67  61  81 NW8       29.88S
SLIDELL        MOCLDY    61  61 100 S6        29.87S
BATON ROUGE    CLOUDY    59  57  93 NW10      29.92R
BOOTHVILLE     CLOUDY    63  61  93 CALM      29.87S
BELLE CHASSE   MOCLDY    64  61  90 CALM      29.87S FOG
BOGALUSA*        N/A     65  61  86 W3        29.88R
GALLIANO*      MOCLDY    54  54  98 CALM      29.89R FOG
NEW ROADS*     CLOUDY    56  51  85 NW13      29.96R
GONZALES*      CLOUDY    65  65 100 SW3       29.89R
HAMMOND*       CLOUDY    66  63  88 CALM      29.89S
HOUMA*         MOCLDY    63  63  99 W3        29.88S FOG
PORT FOURCHON* CLEAR     68  64  88 NW6       29.91R

$$

LAZ041-044-053-054-270300-
SOUTHWEST LOUISIANA

CITY           SKY/WX    TMP DP  RH WIND       PRES   REMARKS
LAKE CHARLES   CLOUDY    59  51  75 N18G29    30.00R
LAFAYETTE      CLOUDY    61  56  83 N18G25    29.96R
PATTERSON      CLOUDY    64  61  88 NW15      29.91R
SALT POINT       N/A     66  63  90 N9G18     29.89R
NEW IBERIA     CLOUDY    62  57  83 NW14      29.95R
CHENAULT AIRPK CLOUDY    57  52  82 NW15G22   30.00R

$$

LAZ027-028-270300-
CENTRAL LOUISIANA

CITY           SKY/WX    TMP DP  RH WIND       PRES   REMARKS
FORT POLK      CLOUDY    56  50  80 N14G21    30.02R
ALEXANDRIA INT CLOUDY    54  50  86 N12       30.01R
ALEXANDRIA     CLOUDY    54  48  80 VRB5      30.02R

$$

LAZ001-002-270300-
NORTHWEST LOUISIANA

CITY           SKY/WX    TMP DP  RH WIND       PRES   REMARKS
SHREVEPORT     PTCLDY    51  45  79 N3        30.06R
BARKSDALE AFB  NOT AVBL
DTN SHREVEPORT PTCLDY    52  43  71 CALM      30.07R

$$

LAZ014-016-270300-
NORTHEAST LOUISIANA

CITY           SKY/WX    TMP DP  RH WIND       PRES   REMARKS
MONROE         CLOUDY    52  45  77 N12G25    30.05R
TALLULAH       LGT RAIN  53  46  77 N14       30.01R

$$




USA.gov is the U.S. government's official web portal to all federal, state and local government web resources and services.